Weather History for Rochelle, IL

Change the Weather History Date:

Monday, February 18, 2013

  Actual Average (KRFD) Record (KRFD)
Temperature  
Mean Temperature 38 °F 27 °F  
Max Temperature 49 °F 35 °F 58 °F (1981)
Min Temperature 26 °F 19 °F -19 °F (1936)
Degree Days  
Heating Degree Days 28 38  
Month to date heating degree days 732  
Since 1 July heating degree days 4641  
Cooling Degree Days 0 0  
Month to date cooling degree days 0  
Year to date cooling degree days 0  
Moisture  
Dew Point 31 °F    
Average Humidity 82    
Maximum Humidity 100    
Minimum Humidity 65    
Precipitation  
Precipitation 0.41 in 0.05 in 0.82 in (2000)
Month to date precipitation 0.82  
Year to date precipitation 2.19  
Snow  
Snow 0.00 in 0.30 in 9.60 in (2000)
Month to date snowfall 5.3  
Since 1 July snowfall 28.6  
Snow Depth -    
Sea Level Pressure  
Sea Level Pressure 29.65 in    
Wind  
Wind Speed 17 mph (South)    
Max Wind Speed 30 mph    
Max Gust Speed 32 mph    
Visibility 8 miles    
Events Rain , Snow    
T = Trace of Precipitation, MM = Missing Value Source: NWS Daily Summary

Daily Weather History Graph

Daily Weather History Graph

Search for Another Location

Airport:

Trip Planner

Search our weather history database for the weather conditions in past years. The results will help you decide how hot, cold, wet, or windy it might be!

Date:

Astronomy

Feb. 18, 2013 Rise Set
Actual Time 6:47 AM CST 5:33 PM CST
Civil Twilight 6:19 AM CST 6:01 PM CST
Nautical Twilight 5:46 AM CST 6:34 PM CST
Astronomical Twilight 5:14 AM CST 7:06 PM CST
Moon 11:16 AM CST (2/18) 1:29 AM CST (2/18)
Length of Visible Light 11h 42m
Length of Day
10h 46m
First Quarter, 58% of the Moon is Illuminated
Feb 18
First Quarter
Feb 25
Full
Mar 4
Last Quarter
Mar 11
New
Mar 19
First Quarter

Hourly Weather History & Observations

Time (CST) Temp. Windchill Dew Point Humidity Pressure Visibility Wind Dir Wind Speed Gust Speed Precip Events Conditions
12:15 AM 27.9 °F 15.1 °F 21.9 °F 78% 29.91 in 10.0 mi SSE 18.4 mph - N/A   Clear
12:35 AM 27.9 °F 15.1 °F 21.7 °F 78% 29.90 in 10.0 mi SSE 18.4 mph - N/A   Clear
12:55 AM 27.5 °F 14.6 °F 21.9 °F 80% 29.89 in 10.0 mi SSE 18.4 mph - N/A   Clear
1:15 AM 28.0 °F 15.7 °F 22.1 °F 78% 29.89 in 10.0 mi SSE 17.3 mph - N/A   Clear
1:35 AM 28.2 °F 16.8 °F 22.1 °F 78% 29.88 in 10.0 mi SSE 15.0 mph - N/A   Clear
1:55 AM 28.2 °F 16.3 °F 22.1 °F 78% 29.86 in 10.0 mi SSE 16.1 mph - N/A   Clear
2:15 AM 28.8 °F 16.6 °F 22.1 °F 76% 29.85 in 10.0 mi SSE 17.3 mph - N/A   Clear
2:35 AM 28.8 °F 16.6 °F 22.5 °F 77% 29.84 in 10.0 mi SSE 17.3 mph 21.9 mph N/A   Clear
2:55 AM 28.6 °F 17.7 °F 22.3 °F 77% 29.83 in 10.0 mi SSE 13.8 mph - N/A   Clear
3:15 AM 28.4 °F 16.6 °F 22.1 °F 77% 29.81 in 10.0 mi SE 16.1 mph - N/A   Clear
3:35 AM 28.4 °F 16.6 °F 22.5 °F 78% 29.80 in 10.0 mi SSE 16.1 mph - N/A   Clear
3:55 AM 28.8 °F 16.2 °F 22.6 °F 78% 29.79 in 10.0 mi SSE 18.4 mph 23.0 mph N/A   Clear
4:15 AM 29.3 °F 16.6 °F 22.8 °F 77% 29.78 in 10.0 mi SSE 19.6 mph 24.2 mph N/A   Clear
4:35 AM 29.7 °F 17.8 °F 23.0 °F 76% 29.78 in 10.0 mi SSE 17.3 mph 23.0 mph N/A   Clear
5:15 AM 30.0 °F 17.9 °F 23.4 °F 76% 29.75 in 10.0 mi SSE 18.4 mph 23.0 mph N/A   Clear
5:35 AM 30.2 °F 18.1 °F 23.4 °F 76% 29.75 in 10.0 mi SSE 18.4 mph - N/A   Clear
5:55 AM 29.8 °F 17.7 °F 23.5 °F 77% 29.74 in 10.0 mi SSE 18.4 mph 23.0 mph N/A   Clear
6:15 AM 29.7 °F 18.2 °F 23.7 °F 79% 29.73 in 10.0 mi SSE 16.1 mph - N/A   Clear
6:55 AM 29.7 °F 18.2 °F 24.4 °F 81% 29.73 in 10.0 mi SSE 16.1 mph - N/A   Clear
7:15 AM 30.4 °F 20.0 °F 24.8 °F 80% 29.72 in 10.0 mi SSE 13.8 mph - N/A   Clear
7:35 AM 31.6 °F 21.2 °F 25.7 °F 79% 29.72 in 10.0 mi SSE 15.0 mph - N/A   Clear
7:55 AM 32.2 °F 21.8 °F 26.6 °F 80% 29.71 in 10.0 mi SSE 15.0 mph - N/A   Clear
8:15 AM 33.6 °F 23.3 °F 27.5 °F 78% 29.70 in 10.0 mi SSE 16.1 mph 20.7 mph N/A   Clear
8:35 AM 35.1 °F 24.8 °F 28.0 °F 76% 29.69 in 10.0 mi South 17.3 mph - N/A   Clear
8:55 AM 36.0 °F 25.6 °F 28.9 °F 76% 29.69 in 10.0 mi South 18.4 mph - N/A   Clear
9:15 AM 37.4 °F 27.5 °F 30.0 °F 75% 29.68 in 10.0 mi South 18.4 mph - N/A   Clear
9:35 AM 38.3 °F 29.0 °F 30.7 °F 74% 29.68 in 10.0 mi South 17.3 mph - N/A   Clear
9:55 AM 39.6 °F 32.1 °F 31.8 °F 74% 29.68 in 10.0 mi South 12.7 mph 18.4 mph N/A   Clear
10:15 AM 41.9 °F 34.3 °F 32.9 °F 70% 29.67 in 10.0 mi South 15.0 mph - N/A   Clear
10:35 AM 43.5 °F 35.5 °F 34.0 °F 69% 29.66 in 10.0 mi South 18.4 mph - N/A   Clear
10:55 AM 45.9 °F 38.8 °F 35.1 °F 66% 29.65 in 10.0 mi South 17.3 mph 23.0 mph N/A   Clear
11:15 AM 46.4 °F 39.0 °F 35.6 °F 66% 29.64 in 10.0 mi South 19.6 mph - N/A   Clear
11:35 AM 48.4 °F - 37.0 °F 65% 29.63 in 10.0 mi South 19.6 mph - N/A   Clear
11:55 AM 49.1 °F - 38.5 °F 67% 29.62 in 10.0 mi South 20.7 mph 24.2 mph N/A   Clear
12:15 PM 49.5 °F - 38.5 °F 66% 29.61 in 10.0 mi South 18.4 mph 25.3 mph N/A   Scattered Clouds
12:35 PM 49.3 °F - 39.0 °F 68% 29.59 in 10.0 mi South 20.7 mph 25.3 mph N/A   Mostly Cloudy
12:55 PM 49.5 °F - 39.4 °F 68% 29.59 in 10.0 mi South 18.4 mph - N/A   Overcast
1:15 PM 48.7 °F - 39.2 °F 70% 29.58 in 10.0 mi South 18.4 mph 27.6 mph N/A   Overcast
1:35 PM 47.3 °F - 39.2 °F 73% 29.57 in 10.0 mi South 16.1 mph - N/A   Overcast
1:55 PM 47.3 °F - 39.7 °F 75% 29.57 in 10.0 mi South 19.6 mph 24.2 mph N/A   Overcast
2:15 PM 46.6 °F - 40.1 °F 78% 29.56 in 10.0 mi South 13.8 mph - N/A Rain Light Rain
2:35 PM 45.5 °F 39.2 °F 40.6 °F 83% 29.55 in 10.0 mi South 13.8 mph - N/A   Overcast
2:55 PM 44.8 °F 38.7 °F 41.0 °F 87% 29.54 in 10.0 mi South 12.7 mph - N/A Rain Light Rain
3:35 PM 45.1 °F 38.8 °F 41.9 °F 88% 29.51 in 10.0 mi South 13.8 mph - N/A   Light Drizzle
3:55 PM 45.0 °F 37.9 °F 42.1 °F 90% 29.50 in 10.0 mi South 16.1 mph 19.6 mph N/A   Overcast
4:15 PM 44.6 °F 37.8 °F 42.3 °F 91% 29.49 in 10.0 mi South 15.0 mph - N/A   Light Drizzle
4:35 PM 44.6 °F 37.2 °F 42.8 °F 93% 29.48 in 5.0 mi South 17.3 mph - 0.01 in Rain Rain
5:15 PM 43.9 °F 38.8 °F 42.8 °F 96% 29.47 in 4.0 mi SSW 9.2 mph - 0.06 in Rain Heavy Rain
5:35 PM 43.2 °F 41.5 °F 42.3 °F 97% 29.45 in 2.5 mi SW 3.5 mph - 0.09 in Rain Light Rain
5:55 PM 43.2 °F 39.0 °F 42.4 °F 97% 29.45 in 1.5 mi WSW 6.9 mph - 0.17 in Rain Heavy Rain
6:15 PM 43.7 °F 39.1 °F 43.0 °F 97% 29.45 in 3.0 mi SW 8.1 mph - 0.05 in Rain Rain
6:55 PM 37.8 °F 29.0 °F 36.7 °F 96% 29.48 in 5.0 mi WNW 15.0 mph 23.0 mph 0.15 in Rain Rain
7:15 PM 36.5 °F 27.0 °F 35.4 °F 96% 29.49 in 5.0 mi WNW 16.1 mph 21.9 mph 0.03 in Rain Rain
7:35 PM 34.7 °F 26.4 °F 33.8 °F 97% 29.49 in 5.0 mi NW 11.5 mph 19.6 mph 0.07 in Rain Light Rain
7:55 PM 32.9 °F 23.2 °F 32.2 °F 97% 29.49 in 2.0 mi WNW 13.8 mph - 0.08 in Snow Light Snow
8:15 PM 32.4 °F 22.5 °F 32.0 °F 99% 29.51 in 1.2 mi West 13.8 mph - N/A Snow Light Snow
8:35 PM 32.2 °F 22.7 °F 32.0 °F 99% 29.50 in 1.8 mi West 12.7 mph - N/A Snow Light Snow
8:55 PM 32.2 °F 21.4 °F 32.0 °F 99% 29.52 in 2.0 mi WNW 16.1 mph - N/A Snow Light Snow
9:15 PM 32.0 °F 20.1 °F 32.0 °F 100% 29.52 in 1.8 mi WNW 19.6 mph 23.0 mph N/A Snow Light Snow
9:35 PM 31.6 °F 20.0 °F 30.2 °F 94% 29.54 in 5.0 mi WNW 18.4 mph 27.6 mph N/A Snow Light Snow
9:55 PM 30.7 °F 16.9 °F 28.8 °F 92% 29.55 in 7.0 mi West 25.3 mph 32.2 mph N/A Rain Light Freezing Rain
10:55 PM 26.6 °F 10.3 °F 23.9 °F 90% 29.60 in - West 29.9 mph - N/A   Unknown
11:15 PM 26.1 °F 11.0 °F 23.5 °F 90% 29.61 in 10.0 mi West 24.2 mph 29.9 mph N/A   Unknown